Wetterdaten: aktuell Samstag, 04.07.2020 08:42
Datum Zeit Temp. 2m Temp. 5cm Temp. -10cm Feuchte 2m Luftdruck Regen Wind Richtung Richtung Taupunkt Windchill Windben
04.07.2020 08:42 18,2 C 24,4 C 17,4 C 72 % 1021,4 hPa 0,0 l/m 0,2 km/h (0 Bft) O-SO 112 13,1 C 18,2 C 0,0 km/h (0 Bft)
04.07.2020 08:40 18,1 C 23,5 C 17,4 C 73 % 1021,4 hPa 0,0 l/m 0,2 km/h (0 Bft) NO 45 13,2 C 18,1 C 2,3 km/h (1 Bft)
04.07.2020 08:38 18,1 C 22,7 C 17,4 C 74 % 1021,0 hPa 0,0 l/m 0,0 km/h (0 Bft) O-NO 67 13,4 C 18,1 C 2,3 km/h (1 Bft)
04.07.2020 08:36 18,0 C 22,4 C 17,4 C 75 % 1021,0 hPa 0,0 l/m 0,0 km/h (0 Bft) N-NO 22 13,5 C 18,0 C 0,0 km/h (0 Bft)
04.07.2020 08:34 18,0 C 23,0 C 17,3 C 75 % 1021,0 hPa 0,0 l/m 0,0 km/h (0 Bft) NW 315 13,5 C 18,0 C 0,0 km/h (0 Bft)
04.07.2020 08:32 17,6 C 22,8 C 17,3 C 76 % 1021,0 hPa 0,0 l/m 0,0 km/h (0 Bft) W-NW 292 13,3 C 17,6 C 0,0 km/h (0 Bft)
04.07.2020 08:30 17,3 C 22,6 C 17,3 C 77 % 1021,0 hPa 0,0 l/m 0,0 km/h (0 Bft) O 90 13,2 C 17,3 C 0,0 km/h (0 Bft)
04.07.2020 08:28 17,0 C 21,0 C 17,3 C 77 % 1021,0 hPa 0,0 l/m 0,0 km/h (0 Bft) SO 135 12,9 C 17,0 C 0,0 km/h (0 Bft)
04.07.2020 08:26 16,7 C 19,4 C 17,3 C 76 % 1021,0 hPa 0,0 l/m 0,0 km/h (0 Bft) N-NO 22 12,4 C 16,7 C 0,0 km/h (0 Bft)
04.07.2020 08:24 16,7 C 19,2 C 17,3 C 76 % 1021,0 hPa 0,0 l/m 0,0 km/h (0 Bft) W-NW 292 12,4 C 16,7 C 0,0 km/h (0 Bft)
04.07.2020 08:22 16,7 C 19,7 C 17,3 C 76 % 1021,0 hPa 0,0 l/m 0,0 km/h (0 Bft) NW 315 12,4 C 16,7 C 0,0 km/h (0 Bft)
04.07.2020 08:20 16,6 C 19,7 C 17,3 C 77 % 1021,0 hPa 0,0 l/m 0,0 km/h (0 Bft) O 90 12,5 C 16,6 C 0,0 km/h (0 Bft)
04.07.2020 08:18 16,7 C 19,7 C 17,3 C 78 % 1021,2 hPa 0,0 l/m 0,0 km/h (0 Bft) W-NW 292 12,8 C 16,7 C 0,0 km/h (0 Bft)
04.07.2020 08:16 16,6 C 19,7 C 17,4 C 78 % 1021,2 hPa 0,0 l/m 0,3 km/h (0 Bft) W-NW 292 12,7 C 16,6 C 0,0 km/h (0 Bft)
04.07.2020 08:14 16,5 C 19,7 C 17,4 C 78 % 1021,2 hPa 0,0 l/m 1,0 km/h (0 Bft) W 270 12,6 C 16,5 C 0,0 km/h (0 Bft)
04.07.2020 08:12 16,3 C 19,3 C 17,4 C 79 % 1021,2 hPa 0,0 l/m 1,4 km/h (1 Bft) O-SO 112 12,6 C 16,3 C 0,0 km/h (0 Bft)
04.07.2020 08:10 16,3 C 19,6 C 17,4 C 80 % 1021,2 hPa 0,0 l/m 1,9 km/h (1 Bft) O-SO 112 12,8 C 16,3 C 2,1 km/h (1 Bft)
04.07.2020 08:08 16,2 C 19,9 C 17,4 C 80 % 1021,2 hPa 0,0 l/m 2,1 km/h (1 Bft) O-SO 112 12,7 C 16,2 C 2,5 km/h (1 Bft)
04.07.2020 08:06 16,1 C 19,9 C 17,4 C 80 % 1021,2 hPa 0,0 l/m 1,9 km/h (1 Bft) O-NO 67 12,6 C 16,1 C 4,2 km/h (1 Bft)
04.07.2020 08:04 16,0 C 19,6 C 17,4 C 80 % 1021,2 hPa 0,0 l/m 1,6 km/h (1 Bft) O-NO 67 12,5 C 16,0 C 4,2 km/h (1 Bft)
04.07.2020 08:02 15,8 C 19,1 C 17,4 C 81 % 1021,2 hPa 0,0 l/m 1,1 km/h (1 Bft) O-NO 67 12,5 C 15,8 C 3,3 km/h (1 Bft)
04.07.2020 08:00 15,8 C 19,0 C 17,4 C 81 % 1021,2 hPa 0,0 l/m 0,6 km/h (0 Bft) O 90 12,5 C 15,8 C 2,7 km/h (1 Bft)
04.07.2020 07:58 15,7 C 18,9 C 17,4 C 81 % 1020,9 hPa 0,0 l/m 0,2 km/h (0 Bft) O-NO 67 12,4 C 15,7 C 0,0 km/h (0 Bft)
04.07.2020 07:56 15,6 C 18,7 C 17,4 C 82 % 1020,9 hPa 0,0 l/m 0,2 km/h (0 Bft) O-NO 67 12,5 C 15,6 C 0,0 km/h (0 Bft)
04.07.2020 07:54 15,5 C 17,8 C 17,4 C 82 % 1020,9 hPa 0,0 l/m 0,2 km/h (0 Bft) O 90 12,4 C 15,5 C 0,0 km/h (0 Bft)
04.07.2020 07:52 15,4 C 17,4 C 17,4 C 82 % 1020,9 hPa 0,0 l/m 0,2 km/h (0 Bft) O-NO 67 12,3 C 15,4 C 0,0 km/h (0 Bft)
04.07.2020 07:50 15,4 C 17,3 C 17,4 C 82 % 1020,9 hPa 0,0 l/m 0,0 km/h (0 Bft) O 90 12,3 C 15,4 C 0,0 km/h (0 Bft)
04.07.2020 07:48 15,4 C 17,0 C 17,4 C 83 % 1020,9 hPa 0,0 l/m 0,0 km/h (0 Bft) O-NO 67 12,5 C 15,4 C 0,0 km/h (0 Bft)
04.07.2020 07:46 15,4 C 17,2 C 17,4 C 83 % 1020,9 hPa 0,0 l/m 0,0 km/h (0 Bft) O-SO 112 12,5 C 15,4 C 0,0 km/h (0 Bft)
04.07.2020 07:44 15,4 C 17,4 C 17,4 C 83 % 1020,9 hPa 0,0 l/m 0,0 km/h (0 Bft) W-NW 292 12,5 C 15,4 C 0,0 km/h (0 Bft)
04.07.2020 07:42 15,4 C 17,4 C 17,4 C 83 % 1020,9 hPa 0,0 l/m 0,0 km/h (0 Bft) W 270 12,5 C 15,4 C 0,0 km/h (0 Bft)
04.07.2020 07:40 15,3 C 17,5 C 17,4 C 84 % 1020,9 hPa 0,0 l/m 0,0 km/h (0 Bft) O-NO 67 12,6 C 15,3 C 0,0 km/h (0 Bft)
04.07.2020 07:38 15,1 C 17,6 C 17,4 C 84 % 1020,9 hPa 0,0 l/m 0,0 km/h (0 Bft) S-SO 157 12,4 C 15,1 C 0,0 km/h (0 Bft)
04.07.2020 07:36 15,0 C 17,6 C 17,4 C 85 % 1020,9 hPa 0,0 l/m 0,3 km/h (0 Bft) O 90 12,5 C 15,0 C 0,0 km/h (0 Bft)
04.07.2020 07:34 14,9 C 17,5 C 17,4 C 85 % 1020,9 hPa 0,0 l/m 0,5 km/h (0 Bft) W 270 12,4 C 14,9 C 1,9 km/h (1 Bft)
04.07.2020 07:32 14,7 C 17,4 C 17,4 C 85 % 1020,9 hPa 0,0 l/m 0,5 km/h (0 Bft) O-NO 67 12,2 C 14,7 C 1,9 km/h (1 Bft)
04.07.2020 07:30 14,7 C 17,0 C 17,4 C 85 % 1020,9 hPa 0,0 l/m 1,0 km/h (0 Bft) SO 135 12,2 C 14,7 C 0,0 km/h (0 Bft)
04.07.2020 07:28 14,6 C 16,8 C 17,4 C 85 % 1020,9 hPa 0,0 l/m 1,1 km/h (1 Bft) SO 135 12,1 C 14,6 C 2,7 km/h (1 Bft)
04.07.2020 07:26 14,5 C 16,7 C 17,4 C 85 % 1020,9 hPa 0,0 l/m 1,0 km/h (0 Bft) O-NO 67 12,0 C 14,5 C 2,7 km/h (1 Bft)
04.07.2020 07:24 14,4 C 16,7 C 17,4 C 85 % 1020,9 hPa 0,0 l/m 1,0 km/h (0 Bft) O 90 11,9 C 14,4 C 2,1 km/h (1 Bft)
04.07.2020 07:22 14,4 C 16,8 C 17,4 C 85 % 1020,9 hPa 0,0 l/m 0,8 km/h (0 Bft) O-NO 67 11,9 C 14,4 C 2,7 km/h (1 Bft)
04.07.2020 07:20 14,2 C 16,9 C 17,4 C 85 % 1020,9 hPa 0,0 l/m 0,6 km/h (0 Bft) O-NO 67 11,7 C 14,2 C 2,7 km/h (1 Bft)
04.07.2020 07:18 14,1 C 16,6 C 17,4 C 85 % 1020,8 hPa 0,0 l/m 0,2 km/h (0 Bft) NO 45 11,6 C 14,1 C 2,3 km/h (1 Bft)
04.07.2020 07:16 13,9 C 16,4 C 17,4 C 86 % 1020,8 hPa 0,0 l/m 0,2 km/h (0 Bft) W-NW 292 11,6 C 13,9 C 0,0 km/h (0 Bft)
04.07.2020 07:14 13,8 C 16,2 C 17,4 C 86 % 1020,8 hPa 0,0 l/m 0,0 km/h (0 Bft) NW 315 11,5 C 13,8 C 0,0 km/h (0 Bft)
04.07.2020 07:12 13,7 C 16,3 C 17,4 C 86 % 1020,8 hPa 0,0 l/m 0,0 km/h (0 Bft) O-SO 112 11,4 C 13,7 C 0,0 km/h (0 Bft)
04.07.2020 07:10 13,6 C 16,2 C 17,4 C 86 % 1020,8 hPa 0,0 l/m 0,0 km/h (0 Bft) O-NO 67 11,3 C 13,6 C 0,0 km/h (0 Bft)
04.07.2020 07:08 13,5 C 16,1 C 17,4 C 86 % 1020,8 hPa 0,0 l/m 0,0 km/h (0 Bft) S-SO 157 11,2 C 13,5 C 0,0 km/h (0 Bft)
04.07.2020 07:06 13,5 C 15,8 C 17,4 C 85 % 1020,8 hPa 0,0 l/m 0,0 km/h (0 Bft) S-SW 202 11,0 C 13,5 C 0,0 km/h (0 Bft)
04.07.2020 07:04 13,3 C 15,6 C 17,4 C 85 % 1020,8 hPa 0,0 l/m 0,0 km/h (0 Bft) SO 135 10,8 C 13,3 C 0,0 km/h (0 Bft)
04.07.2020 07:02 13,2 C 15,3 C 17,4 C 85 % 1020,8 hPa 0,0 l/m 0,0 km/h (0 Bft) SO 135 10,7 C 13,2 C 0,0 km/h (0 Bft)
04.07.2020 07:00 13,2 C 15,1 C 17,5 C 85 % 1020,8 hPa 0,0 l/m 0,0 km/h (0 Bft) S-SW 202 10,7 C 13,2 C 0,0 km/h (0 Bft)
04.07.2020 06:58 13,2 C 15,1 C 17,5 C 85 % 1020,9 hPa 0,0 l/m 0,0 km/h (0 Bft) S-SW 202 10,7 C 13,2 C 0,0 km/h (0 Bft)
04.07.2020 06:56 13,0 C 15,0 C 17,5 C 85 % 1020,9 hPa 0,0 l/m 0,0 km/h (0 Bft) S-SO 157 10,5 C 13,0 C 0,0 km/h (0 Bft)
04.07.2020 06:54 13,0 C 14,9 C 17,5 C 85 % 1020,9 hPa 0,0 l/m 0,0 km/h (0 Bft) W-NW 292 10,5 C 13,0 C 0,0 km/h (0 Bft)
04.07.2020 06:52 12,9 C 14,8 C 17,5 C 86 % 1020,9 hPa 0,0 l/m 0,0 km/h (0 Bft) N-NO 22 10,6 C 12,9 C 0,0 km/h (0 Bft)
04.07.2020 06:50 12,7 C 14,5 C 17,5 C 86 % 1020,9 hPa 0,0 l/m 0,0 km/h (0 Bft) SO 135 10,4 C 12,7 C 0,0 km/h (0 Bft)
04.07.2020 06:48 12,5 C 14,4 C 17,5 C 86 % 1020,9 hPa 0,0 l/m 0,0 km/h (0 Bft) O-NO 67 10,2 C 12,5 C 0,0 km/h (0 Bft)
04.07.2020 06:46 12,3 C 14,1 C 17,5 C 86 % 1020,9 hPa 0,0 l/m 0,0 km/h (0 Bft) O-SO 112 10,0 C 12,3 C 0,0 km/h (0 Bft)
04.07.2020 06:44 12,3 C 14,1 C 17,5 C 86 % 1020,9 hPa 0,0 l/m 0,0 km/h (0 Bft) S 180 10,0 C 12,3 C 0,0 km/h (0 Bft)
04.07.2020 06:42 12,2 C 13,6 C 17,5 C 85 % 1020,9 hPa 0,0 l/m 0,0 km/h (0 Bft) O-NO 67 9,8 C 12,2 C 0,0 km/h (0 Bft)
04.07.2020 06:40 12,1 C 13,0 C 17,5 C 85 % 1020,9 hPa 0,0 l/m 0,0 km/h (0 Bft) S-SO 157 9,7 C 12,1 C 0,0 km/h (0 Bft)
04.07.2020 06:38 11,9 C 12,6 C 17,5 C 86 % 1020,9 hPa 0,0 l/m 0,0 km/h (0 Bft) N-NO 22 9,6 C 11,9 C 0,0 km/h (0 Bft)
04.07.2020 06:36 11,7 C 12,1 C 17,5 C 86 % 1020,9 hPa 0,0 l/m 0,0 km/h (0 Bft) SO 135 9,4 C 11,7 C 0,0 km/h (0 Bft)
04.07.2020 06:34 11,8 C 11,6 C 17,5 C 85 % 1020,9 hPa 0,0 l/m 0,0 km/h (0 Bft) O 90 9,4 C 11,8 C 0,0 km/h (0 Bft)
04.07.2020 06:32 11,7 C 11,5 C 17,5 C 85 % 1020,9 hPa 0,0 l/m 0,0 km/h (0 Bft) NO 45 9,3 C 11,7 C 0,0 km/h (0 Bft)
04.07.2020 06:30 11,7 C 11,2 C 17,5 C 85 % 1020,9 hPa 0,0 l/m 0,0 km/h (0 Bft) S-SO 157 9,3 C 11,7 C 0,0 km/h (0 Bft)
04.07.2020 06:28 11,7 C 11,1 C 17,5 C 85 % 1020,9 hPa 0,0 l/m 0,0 km/h (0 Bft) N-NO 22 9,3 C 11,7 C 0,0 km/h (0 Bft)
04.07.2020 06:26 11,7 C 11,1 C 17,5 C 85 % 1020,9 hPa 0,0 l/m 0,0 km/h (0 Bft) S-SO 157 9,3 C 11,7 C 0,0 km/h (0 Bft)
04.07.2020 06:24 11,8 C 11,1 C 17,5 C 85 % 1020,9 hPa 0,0 l/m 0,0 km/h (0 Bft) S-SW 202 9,4 C 11,8 C 0,0 km/h (0 Bft)
04.07.2020 06:22 11,8 C 11,1 C 17,5 C 85 % 1020,9 hPa 0,0 l/m 0,0 km/h (0 Bft) O-SO 112 9,4 C 11,8 C 0,0 km/h (0 Bft)
04.07.2020 06:20 11,6 C 11,1 C 17,6 C 85 % 1020,9 hPa 0,0 l/m 0,0 km/h (0 Bft) SW 225 9,2 C 11,6 C 0,0 km/h (0 Bft)
04.07.2020 06:18 11,8 C 11,1 C 17,6 C 85 % 1020,8 hPa 0,0 l/m 0,0 km/h (0 Bft) S-SW 202 9,4 C 11,8 C 0,0 km/h (0 Bft)
04.07.2020 06:16 12,0 C 11,0 C 17,6 C 85 % 1020,8 hPa 0,0 l/m 0,0 km/h (0 Bft) O-SO 112 9,6 C 12,0 C 0,0 km/h (0 Bft)
04.07.2020 06:14 11,9 C 11,0 C 17,6 C 85 % 1020,8 hPa 0,0 l/m 0,0 km/h (0 Bft) N-NO 22 9,5 C 11,9 C 0,0 km/h (0 Bft)
04.07.2020 06:12 11,9 C 11,0 C 17,6 C 85 % 1020,8 hPa 0,0 l/m 0,0 km/h (0 Bft) O-NO 67 9,5 C 11,9 C 0,0 km/h (0 Bft)
04.07.2020 06:10 12,0 C 11,2 C 17,6 C 84 % 1020,8 hPa 0,0 l/m 0,2 km/h (0 Bft) O-NO 67 9,4 C 12,0 C 0,0 km/h (0 Bft)
04.07.2020 06:08 12,0 C 11,2 C 17,6 C 84 % 1020,8 hPa 0,0 l/m 0,2 km/h (0 Bft) O-NO 67 9,4 C 12,0 C 0,0 km/h (0 Bft)
04.07.2020 06:06 12,0 C 11,2 C 17,6 C 84 % 1020,8 hPa 0,0 l/m 0,2 km/h (0 Bft) O-NO 67 9,4 C 12,0 C 0,0 km/h (0 Bft)
04.07.2020 06:04 12,0 C 11,2 C 17,6 C 84 % 1020,8 hPa 0,0 l/m 0,2 km/h (0 Bft) O-NO 67 9,4 C 12,0 C 0,0 km/h (0 Bft)
04.07.2020 06:02 12,0 C 11,2 C 17,6 C 84 % 1020,8 hPa 0,0 l/m 0,2 km/h (0 Bft) O-NO 67 9,4 C 12,0 C 0,0 km/h (0 Bft)
04.07.2020 06:00 12,0 C 11,2 C 17,6 C 84 % 1020,8 hPa 0,0 l/m 0,2 km/h (0 Bft) O 90 9,4 C 12,0 C 0,0 km/h (0 Bft)
04.07.2020 05:58 11,9 C 11,2 C 17,6 C 84 % 1020,6 hPa 0,0 l/m 0,3 km/h (0 Bft) N 360 9,3 C 11,9 C 0,0 km/h (0 Bft)
04.07.2020 05:56 12,0 C 11,3 C 17,6 C 84 % 1020,6 hPa 0,0 l/m 0,3 km/h (0 Bft) O-NO 67 9,4 C 12,0 C 3,5 km/h (1 Bft)
04.07.2020 05:54 12,0 C 11,4 C 17,6 C 84 % 1020,6 hPa 0,0 l/m 0,3 km/h (0 Bft) O-NO 67 9,4 C 12,0 C 3,5 km/h (1 Bft)
04.07.2020 05:52 12,0 C 11,7 C 17,6 C 84 % 1020,6 hPa 0,0 l/m 0,2 km/h (0 Bft) NO 45 9,4 C 12,0 C 0,0 km/h (0 Bft)
04.07.2020 05:50 12,0 C 11,7 C 17,6 C 84 % 1020,6 hPa 0,0 l/m 0,3 km/h (0 Bft) W-SW 247 9,4 C 12,0 C 2,9 km/h (1 Bft)
04.07.2020 05:48 12,0 C 11,7 C 17,6 C 84 % 1020,6 hPa 0,0 l/m 0,5 km/h (0 Bft) SO 135 9,4 C 12,0 C 2,9 km/h (1 Bft)
04.07.2020 05:46 11,9 C 11,7 C 17,6 C 84 % 1020,6 hPa 0,0 l/m 0,5 km/h (0 Bft) O-NO 67 9,3 C 11,9 C 0,0 km/h (0 Bft)
04.07.2020 05:44 11,9 C 11,8 C 17,6 C 84 % 1020,6 hPa 0,0 l/m 0,5 km/h (0 Bft) S-SW 202 9,3 C 11,9 C 0,0 km/h (0 Bft)
04.07.2020 05:42 11,9 C 11,8 C 17,7 C 84 % 1020,6 hPa 0,0 l/m 0,6 km/h (0 Bft) O-SO 112 9,3 C 11,9 C 0,0 km/h (0 Bft)
04.07.2020 05:40 11,9 C 11,8 C 17,7 C 84 % 1020,6 hPa 0,0 l/m 0,5 km/h (0 Bft) O-NO 67 9,3 C 11,9 C 2,7 km/h (1 Bft)
04.07.2020 05:38 11,8 C 11,9 C 17,7 C 84 % 1020,7 hPa 0,0 l/m 0,5 km/h (0 Bft) O 90 9,2 C 11,8 C 2,7 km/h (1 Bft)
04.07.2020 05:36 11,8 C 12,1 C 17,7 C 84 % 1020,7 hPa 0,0 l/m 0,3 km/h (0 Bft) S 180 9,2 C 11,8 C 1,9 km/h (1 Bft)
04.07.2020 05:34 12,0 C 12,1 C 17,7 C 83 % 1020,7 hPa 0,0 l/m 0,2 km/h (0 Bft) W-SW 247 9,2 C 12,0 C 0,0 km/h (0 Bft)
04.07.2020 05:32 11,8 C 12,2 C 17,7 C 83 % 1020,7 hPa 0,0 l/m 0,2 km/h (0 Bft) O-SO 112 9,0 C 11,8 C 0,0 km/h (0 Bft)
04.07.2020 05:30 11,7 C 11,9 C 17,7 C 83 % 1020,7 hPa 0,0 l/m 0,0 km/h (0 Bft) S-SO 157 8,9 C 11,7 C 0,0 km/h (0 Bft)
04.07.2020 05:28 11,9 C 11,9 C 17,7 C 83 % 1020,7 hPa 0,0 l/m 0,0 km/h (0 Bft) S-SO 157 9,1 C 11,9 C 0,0 km/h (0 Bft)
04.07.2020 05:26 11,8 C 11,8 C 17,7 C 83 % 1020,7 hPa 0,0 l/m 0,0 km/h (0 Bft) W-NW 292 9,0 C 11,8 C 0,0 km/h (0 Bft)
04.07.2020 05:24 11,7 C 11,8 C 17,7 C 83 % 1020,7 hPa 0,0 l/m 0,0 km/h (0 Bft) W-NW 292 8,9 C 11,7 C 0,0 km/h (0 Bft)
04.07.2020 05:22 11,7 C 11,7 C 17,7 C 83 % 1020,7 hPa 0,0 l/m 0,0 km/h (0 Bft) W-NW 292 8,9 C 11,7 C 0,0 km/h (0 Bft)
04.07.2020 05:20 11,8 C 11,7 C 17,7 C 83 % 1020,7 hPa 0,0 l/m 0,0 km/h (0 Bft) O-NO 67 9,0 C 11,8 C 0,0 km/h (0 Bft)
04.07.2020 05:18 11,8 C 11,5 C 17,7 C 83 % 1020,9 hPa 0,0 l/m 0,0 km/h (0 Bft) O-SO 112 9,0 C 11,8 C 0,0 km/h (0 Bft)
04.07.2020 05:16 11,7 C 11,4 C 17,7 C 83 % 1020,9 hPa 0,0 l/m 0,0 km/h (0 Bft) N-NO 22 8,9 C 11,7 C 0,0 km/h (0 Bft)
04.07.2020 05:14 11,7 C 11,2 C 17,7 C 83 % 1020,9 hPa 0,0 l/m 0,0 km/h (0 Bft) W 270 8,9 C 11,7 C 0,0 km/h (0 Bft)
04.07.2020 05:12 11,7 C 11,0 C 17,7 C 83 % 1020,9 hPa 0,0 l/m 0,0 km/h (0 Bft) S-SO 157 8,9 C 11,7 C 0,0 km/h (0 Bft)
04.07.2020 05:10 11,8 C 10,7 C 17,8 C 83 % 1020,9 hPa 0,0 l/m 0,0 km/h (0 Bft) O-NO 67 9,0 C 11,8 C 0,0 km/h (0 Bft)
04.07.2020 05:08 11,8 C 10,5 C 17,8 C 83 % 1020,9 hPa 0,0 l/m 0,0 km/h (0 Bft) S-SO 157 9,0 C 11,8 C 0,0 km/h (0 Bft)
04.07.2020 05:06 11,8 C 10,2 C 17,8 C 83 % 1020,9 hPa 0,0 l/m 0,0 km/h (0 Bft) S 180 9,0 C 11,8 C 0,0 km/h (0 Bft)
04.07.2020 05:04 11,9 C 10,2 C 17,8 C 83 % 1020,9 hPa 0,0 l/m 0,0 km/h (0 Bft) S-SO 157 9,1 C 11,9 C 0,0 km/h (0 Bft)
04.07.2020 05:02 11,9 C 10,1 C 17,8 C 83 % 1020,9 hPa 0,0 l/m 0,0 km/h (0 Bft) O-NO 67 9,1 C 11,9 C 0,0 km/h (0 Bft)
04.07.2020 05:00 11,9 C 10,1 C 17,8 C 83 % 1020,9 hPa 0,0 l/m 0,0 km/h (0 Bft) NO 45 9,1 C 11,9 C 0,0 km/h (0 Bft)
04.07.2020 04:58 11,8 C 10,2 C 17,8 C 83 % 1020,8 hPa 0,0 l/m 0,0 km/h (0 Bft) SO 135 9,0 C 11,8 C 0,0 km/h (0 Bft)
04.07.2020 04:56 11,9 C 10,2 C 17,8 C 83 % 1020,8 hPa 0,0 l/m 0,0 km/h (0 Bft) NO 45 9,1 C 11,9 C 0,0 km/h (0 Bft)
04.07.2020 04:54 11,9 C 10,2 C 17,8 C 83 % 1020,8 hPa 0,0 l/m 0,0 km/h (0 Bft) O 90 9,1 C 11,9 C 0,0 km/h (0 Bft)
04.07.2020 04:52 11,9 C 10,2 C 17,8 C 82 % 1020,8 hPa 0,0 l/m 0,0 km/h (0 Bft) SO 135 8,9 C 11,9 C 0,0 km/h (0 Bft)
04.07.2020 04:50 11,9 C 10,2 C 17,8 C 82 % 1020,8 hPa 0,0 l/m 0,0 km/h (0 Bft) S 180 8,9 C 11,9 C 0,0 km/h (0 Bft)
04.07.2020 04:48 12,0 C 10,3 C 17,8 C 82 % 1020,8 hPa 0,0 l/m 0,0 km/h (0 Bft) O-SO 112 9,0 C 12,0 C 0,0 km/h (0 Bft)
04.07.2020 04:46 12,0 C 10,3 C 17,8 C 82 % 1020,8 hPa 0,0 l/m 0,0 km/h (0 Bft) O 90 9,0 C 12,0 C 0,0 km/h (0 Bft)
04.07.2020 04:44 12,0 C 10,3 C 17,8 C 82 % 1020,8 hPa 0,0 l/m 0,0 km/h (0 Bft) S 180 9,0 C 12,0 C 0,0 km/h (0 Bft)
04.07.2020 04:42 12,2 C 10,3 C 17,8 C 82 % 1020,8 hPa 0,0 l/m 0,0 km/h (0 Bft) O-NO 67 9,2 C 12,2 C 0,0 km/h (0 Bft)
04.07.2020 04:40 12,3 C 10,3 C 17,8 C 82 % 1020,8 hPa 0,0 l/m 0,0 km/h (0 Bft) NO 45 9,3 C 12,3 C 0,0 km/h (0 Bft)
04.07.2020 04:38 12,1 C 10,4 C 17,8 C 82 % 1020,6 hPa 0,0 l/m 0,0 km/h (0 Bft) NO 45 9,1 C 12,1 C 0,0 km/h (0 Bft)
04.07.2020 04:36 12,1 C 10,5 C 17,9 C 82 % 1020,6 hPa 0,0 l/m 0,0 km/h (0 Bft) N 360 9,1 C 12,1 C 0,0 km/h (0 Bft)
04.07.2020 04:34 12,1 C 10,5 C 17,9 C 82 % 1020,6 hPa 0,0 l/m 0,0 km/h (0 Bft) SO 135 9,1 C 12,1 C 0,0 km/h (0 Bft)
04.07.2020 04:32 12,1 C 10,5 C 17,9 C 82 % 1020,6 hPa 0,0 l/m 0,0 km/h (0 Bft) S-SO 157 9,1 C 12,1 C 2,1 km/h (1 Bft)
04.07.2020 04:30 12,2 C 10,6 C 17,9 C 81 % 1020,6 hPa 0,0 l/m 0,0 km/h (0 Bft) O 90 9,0 C 12,2 C 2,1 km/h (1 Bft)
04.07.2020 04:28 12,4 C 10,6 C 17,9 C 81 % 1020,6 hPa 0,0 l/m 0,0 km/h (0 Bft) O-SO 112 9,2 C 12,4 C 0,0 km/h (0 Bft)
04.07.2020 04:26 12,4 C 10,6 C 17,9 C 81 % 1020,6 hPa 0,0 l/m 0,0 km/h (0 Bft) O-NO 67 9,2 C 12,4 C 0,0 km/h (0 Bft)
04.07.2020 04:24 12,5 C 10,7 C 17,9 C 81 % 1020,6 hPa 0,0 l/m 0,0 km/h (0 Bft) O-NO 67 9,3 C 12,5 C 0,0 km/h (0 Bft)
04.07.2020 04:22 12,4 C 10,7 C 17,9 C 81 % 1020,6 hPa 0,0 l/m 0,2 km/h (0 Bft) W-NW 292 9,2 C 12,4 C 0,0 km/h (0 Bft)
04.07.2020 04:20 12,6 C 10,8 C 17,8 C 81 % 1020,6 hPa 0,0 l/m 0,3 km/h (0 Bft) NO 45 9,4 C 12,6 C 0,0 km/h (0 Bft)
04.07.2020 04:18 12,6 C 10,9 C 17,8 C 81 % 1020,7 hPa 0,0 l/m 0,3 km/h (0 Bft) N-NO 22 9,4 C 12,6 C 0,0 km/h (0 Bft)
04.07.2020 04:16 12,6 C 11,2 C 17,8 C 81 % 1020,7 hPa 0,0 l/m 0,3 km/h (0 Bft) N-NO 22 9,4 C 12,6 C 0,0 km/h (0 Bft)
04.07.2020 04:14 12,5 C 11,3 C 17,8 C 81 % 1020,7 hPa 0,0 l/m 0,3 km/h (0 Bft) S-SO 157 9,3 C 12,5 C 3,1 km/h (1 Bft)
04.07.2020 04:12 12,5 C 11,4 C 17,8 C 81 % 1020,7 hPa 0,0 l/m 0,6 km/h (0 Bft) S-SW 202 9,3 C 12,5 C 3,1 km/h (1 Bft)
04.07.2020 04:10 12,7 C 11,4 C 17,8 C 81 % 1020,7 hPa 0,0 l/m 0,5 km/h (0 Bft) S 180 9,5 C 12,7 C 0,0 km/h (0 Bft)
04.07.2020 04:08 12,6 C 11,3 C 17,8 C 81 % 1020,7 hPa 0,0 l/m 0,5 km/h (0 Bft) N 360 9,4 C 12,6 C 0,0 km/h (0 Bft)
04.07.2020 04:06 12,6 C 11,3 C 17,8 C 81 % 1020,7 hPa 0,0 l/m 0,5 km/h (0 Bft) NO 45 9,4 C 12,6 C 0,0 km/h (0 Bft)
04.07.2020 04:04 12,7 C 11,3 C 17,8 C 81 % 1020,7 hPa 0,0 l/m 0,5 km/h (0 Bft) O 90 9,5 C 12,7 C 3,1 km/h (1 Bft)
04.07.2020 04:02 12,9 C 11,1 C 17,9 C 81 % 1020,7 hPa 0,0 l/m 0,6 km/h (0 Bft) O-SO 112 9,7 C 12,9 C 3,1 km/h (1 Bft)
04.07.2020 04:00 12,8 C 11,1 C 17,9 C 81 % 1020,7 hPa 0,0 l/m 0,5 km/h (0 Bft) O 90 9,6 C 12,8 C 2,5 km/h (1 Bft)
04.07.2020 03:58 12,9 C 11,2 C 17,9 C 80 % 1020,6 hPa 0,0 l/m 0,5 km/h (0 Bft) O-SO 112 9,5 C 12,9 C 0,0 km/h (0 Bft)
04.07.2020 03:56 12,9 C 11,3 C 17,9 C 80 % 1020,6 hPa 0,0 l/m 0,5 km/h (0 Bft) NO 45 9,5 C 12,9 C 0,0 km/h (0 Bft)
04.07.2020 03:54 12,9 C 11,5 C 17,9 C 80 % 1020,6 hPa 0,0 l/m 0,5 km/h (0 Bft) SO 135 9,5 C 12,9 C 0,0 km/h (0 Bft)
04.07.2020 03:52 13,0 C 11,6 C 17,9 C 80 % 1020,6 hPa 0,0 l/m 0,6 km/h (0 Bft) SO 135 9,6 C 13,0 C 2,5 km/h (1 Bft)
04.07.2020 03:50 13,0 C 11,5 C 17,9 C 80 % 1020,6 hPa 0,0 l/m 0,3 km/h (0 Bft) O-NO 67 9,6 C 13,0 C 2,5 km/h (1 Bft)
04.07.2020 03:48 13,0 C 11,5 C 17,9 C 80 % 1020,6 hPa 0,0 l/m 0,3 km/h (0 Bft) SO 135 9,6 C 13,0 C 0,0 km/h (0 Bft)
04.07.2020 03:46 13,0 C 11,6 C 17,9 C 80 % 1020,6 hPa 0,0 l/m 0,3 km/h (0 Bft) S-SO 157 9,6 C 13,0 C 2,5 km/h (1 Bft)
04.07.2020 03:44 13,1 C 11,6 C 17,9 C 80 % 1020,6 hPa 0,0 l/m 0,3 km/h (0 Bft) O-NO 67 9,7 C 13,1 C 2,5 km/h (1 Bft)
04.07.2020 03:42 13,3 C 11,7 C 17,9 C 80 % 1020,6 hPa 0,0 l/m 0,2 km/h (0 Bft) O-NO 67 9,9 C 13,3 C 0,0 km/h (0 Bft)
04.07.2020 03:40 13,3 C 11,8 C 17,9 C 79 % 1020,6 hPa 0,0 l/m 0,3 km/h (0 Bft) O 90 9,7 C 13,3 C 0,0 km/h (0 Bft)
04.07.2020 03:38 13,4 C 11,8 C 17,9 C 79 % 1020,9 hPa 0,0 l/m 0,5 km/h (0 Bft) O-SO 112 9,8 C 13,4 C 6,4 km/h (2 Bft)
04.07.2020 03:36 13,5 C 11,9 C 17,9 C 79 % 1020,9 hPa 0,0 l/m 1,3 km/h (1 Bft) SO 135 9,9 C 13,5 C 0,0 km/h (0 Bft)
04.07.2020 03:34 13,5 C 12,0 C 17,9 C 79 % 1020,9 hPa 0,0 l/m 1,4 km/h (1 Bft) O-SO 112 9,9 C 13,5 C 0,0 km/h (0 Bft)
04.07.2020 03:32 13,6 C 12,0 C 17,9 C 79 % 1020,9 hPa 0,0 l/m 1,6 km/h (1 Bft) NO 45 10,0 C 13,6 C 2,5 km/h (1 Bft)
04.07.2020 03:30 13,7 C 11,9 C 17,9 C 79 % 1020,9 hPa 0,0 l/m 1,8 km/h (1 Bft) O-SO 112 10,1 C 13,7 C 6,4 km/h (2 Bft)
04.07.2020 03:28 13,7 C 11,9 C 17,9 C 79 % 1020,9 hPa 0,0 l/m 1,4 km/h (1 Bft) O-NO 67 10,1 C 13,7 C 6,4 km/h (2 Bft)
04.07.2020 03:26 13,7 C 11,9 C 17,9 C 79 % 1020,9 hPa 0,0 l/m 0,6 km/h (0 Bft) O-NO 67 10,1 C 13,7 C 3,9 km/h (1 Bft)
04.07.2020 03:24 13,8 C 12,1 C 18,0 C 79 % 1020,9 hPa 0,0 l/m 0,5 km/h (0 Bft) O-SO 112 10,2 C 13,8 C 2,7 km/h (1 Bft)
04.07.2020 03:22 13,9 C 12,2 C 18,0 C 79 % 1020,9 hPa 0,0 l/m 0,2 km/h (0 Bft) O-SO 112 10,3 C 13,9 C 2,3 km/h (1 Bft)
04.07.2020 03:20 14,0 C 12,3 C 18,0 C 79 % 1020,9 hPa 0,0 l/m 0,2 km/h (0 Bft) O-NO 67 10,4 C 14,0 C 0,0 km/h (0 Bft)
04.07.2020 03:18 13,9 C 12,5 C 18,0 C 79 % 1020,9 hPa 0,0 l/m 0,2 km/h (0 Bft) O-NO 67 10,3 C 13,9 C 0,0 km/h (0 Bft)
04.07.2020 03:16 14,1 C 12,7 C 18,0 C 78 % 1020,9 hPa 0,0 l/m 0,2 km/h (0 Bft) S-SO 157 10,3 C 14,1 C 2,3 km/h (1 Bft)
04.07.2020 03:14 14,3 C 12,9 C 18,0 C 78 % 1020,9 hPa 0,0 l/m 0,2 km/h (0 Bft) NW 315 10,5 C 14,3 C 2,3 km/h (1 Bft)
04.07.2020 03:12 14,4 C 13,3 C 18,0 C 78 % 1020,9 hPa 0,0 l/m 0,2 km/h (0 Bft) NO 45 10,6 C 14,4 C 4,6 km/h (1 Bft)
04.07.2020 03:10 14,6 C 14,5 C 18,0 C 78 % 1020,9 hPa 0,0 l/m 0,6 km/h (0 Bft) W 270 10,8 C 14,6 C 4,6 km/h (1 Bft)
04.07.2020 03:08 14,6 C 14,5 C 18,0 C 78 % 1020,9 hPa 0,0 l/m 0,6 km/h (0 Bft) W 270 10,8 C 14,6 C 4,6 km/h (1 Bft)
04.07.2020 03:06 14,6 C 14,5 C 18,0 C 78 % 1020,9 hPa 0,0 l/m 0,6 km/h (0 Bft) W 270 10,8 C 14,6 C 4,6 km/h (1 Bft)
04.07.2020 03:04 14,6 C 14,5 C 18,0 C 78 % 1020,9 hPa 0,0 l/m 0,6 km/h (0 Bft) W 270 10,8 C 14,6 C 4,6 km/h (1 Bft)
04.07.2020 03:02 14,6 C 14,5 C 18,0 C 78 % 1020,9 hPa 0,0 l/m 0,6 km/h (0 Bft) W 270 10,8 C 14,6 C 4,6 km/h (1 Bft)
04.07.2020 03:00 14,6 C 14,5 C 18,0 C 78 % 1020,9 hPa 0,0 l/m 0,5 km/h (0 Bft) W-NW 292 10,8 C 14,6 C 3,3 km/h (1 Bft)
04.07.2020 02:58 14,7 C 14,5 C 18,0 C 78 % 1020,9 hPa 0,0 l/m 0,2 km/h (0 Bft) S-SW 202 10,9 C 14,7 C 0,0 km/h (0 Bft)
04.07.2020 02:56 14,7 C 14,5 C 18,0 C 78 % 1020,9 hPa 0,0 l/m 0,2 km/h (0 Bft) NW 315 10,9 C 14,7 C 0,0 km/h (0 Bft)
04.07.2020 02:54 14,7 C 14,5 C 18,0 C 78 % 1020,9 hPa 0,0 l/m 0,2 km/h (0 Bft) N 360 10,9 C 14,7 C 0,0 km/h (0 Bft)
04.07.2020 02:52 14,7 C 14,5 C 18,0 C 78 % 1020,9 hPa 0,0 l/m 0,2 km/h (0 Bft) O 90 10,9 C 14,7 C 2,7 km/h (1 Bft)
04.07.2020 02:50 14,7 C 14,5 C 18,0 C 78 % 1020,9 hPa 0,0 l/m 0,3 km/h (0 Bft) O-NO 67 10,9 C 14,7 C 2,7 km/h (1 Bft)
04.07.2020 02:48 14,6 C 14,4 C 18,0 C 78 % 1020,9 hPa 0,0 l/m 0,2 km/h (0 Bft) O-NO 67 10,8 C 14,6 C 0,0 km/h (0 Bft)
04.07.2020 02:46 14,6 C 14,4 C 18,0 C 78 % 1020,9 hPa 0,0 l/m 0,2 km/h (0 Bft) O-SO 112 10,8 C 14,6 C 0,0 km/h (0 Bft)
04.07.2020 02:44 14,6 C 14,4 C 18,0 C 78 % 1020,9 hPa 0,0 l/m 0,3 km/h (0 Bft) SO 135 10,8 C 14,6 C 0,0 km/h (0 Bft)
04.07.2020 02:42 14,6 C 14,4 C 18,0 C 78 % 1020,9 hPa 0,0 l/m 0,3 km/h (0 Bft) W-NW 292 10,8 C 14,6 C 0,0 km/h (0 Bft)
04.07.2020 02:40 14,5 C 14,4 C 18,0 C 78 % 1020,9 hPa 0,0 l/m 0,2 km/h (0 Bft) SO 135 10,7 C 14,5 C 0,0 km/h (0 Bft)
04.07.2020 02:38 14,6 C 14,4 C 18,0 C 78 % 1021,1 hPa 0,0 l/m 0,2 km/h (0 Bft) O-NO 67 10,8 C 14,6 C 1,9 km/h (1 Bft)
04.07.2020 02:36 14,5 C 14,4 C 18,0 C 78 % 1021,1 hPa 0,0 l/m 0,2 km/h (0 Bft) O-NO 67 10,7 C 14,5 C 1,9 km/h (1 Bft)
04.07.2020 02:34 14,5 C 14,5 C 18,0 C 78 % 1021,1 hPa 0,0 l/m 0,0 km/h (0 Bft) O-NO 67 10,7 C 14,5 C 0,0 km/h (0 Bft)
04.07.2020 02:32 14,4 C 14,4 C 18,1 C 78 % 1021,1 hPa 0,0 l/m 0,2 km/h (0 Bft) N-NO 22 10,6 C 14,4 C 0,0 km/h (0 Bft)
04.07.2020 02:30 14,4 C 14,4 C 18,1 C 78 % 1021,1 hPa 0,0 l/m 0,2 km/h (0 Bft) O-SO 112 10,6 C 14,4 C 0,0 km/h (0 Bft)
04.07.2020 02:28 14,5 C 14,6 C 18,1 C 78 % 1021,1 hPa 0,0 l/m 0,2 km/h (0 Bft) W-NW 292 10,7 C 14,5 C 0,0 km/h (0 Bft)
04.07.2020 02:26 14,5 C 14,6 C 18,1 C 78 % 1021,1 hPa 0,0 l/m 0,2 km/h (0 Bft) N 360 10,7 C 14,5 C 0,0 km/h (0 Bft)
04.07.2020 02:24 14,4 C 14,5 C 18,1 C 78 % 1021,1 hPa 0,0 l/m 0,3 km/h (0 Bft) N 360 10,6 C 14,4 C 3,3 km/h (1 Bft)
04.07.2020 02:22 14,3 C 14,5 C 18,1 C 78 % 1021,1 hPa 0,0 l/m 0,8 km/h (0 Bft) SO 135 10,5 C 14,3 C 3,3 km/h (1 Bft)
04.07.2020 02:20 14,4 C 14,5 C 18,1 C 78 % 1021,1 hPa 0,0 l/m 0,6 km/h (0 Bft) S-SW 202 10,6 C 14,4 C 0,0 km/h (0 Bft)
04.07.2020 02:18 14,4 C 14,5 C 18,1 C 78 % 1020,9 hPa 0,0 l/m 0,6 km/h (0 Bft) O-NO 67 10,6 C 14,4 C 2,3 km/h (1 Bft)
04.07.2020 02:16 14,4 C 14,5 C 18,1 C 78 % 1020,9 hPa 0,0 l/m 0,6 km/h (0 Bft) SO 135 10,6 C 14,4 C 2,3 km/h (1 Bft)
04.07.2020 02:14 14,5 C 14,5 C 18,1 C 78 % 1020,9 hPa 0,0 l/m 0,6 km/h (0 Bft) O-SO 112 10,7 C 14,5 C 4,1 km/h (1 Bft)
04.07.2020 02:12 14,6 C 14,5 C 18,1 C 78 % 1020,9 hPa 0,0 l/m 0,8 km/h (0 Bft) O-NO 67 10,8 C 14,6 C 4,1 km/h (1 Bft)
04.07.2020 02:10 14,3 C 14,4 C 18,1 C 78 % 1020,9 hPa 0,0 l/m 0,6 km/h (0 Bft) N-NW 337 10,5 C 14,3 C 0,0 km/h (0 Bft)
04.07.2020 02:08 14,4 C 14,3 C 18,1 C 78 % 1020,9 hPa 0,0 l/m 0,6 km/h (0 Bft) S 180 10,6 C 14,4 C 0,0 km/h (0 Bft)
04.07.2020 02:06 14,6 C 14,2 C 18,1 C 78 % 1020,9 hPa 0,0 l/m 0,6 km/h (0 Bft) O-SO 112 10,8 C 14,6 C 0,0 km/h (0 Bft)
04.07.2020 02:04 14,5 C 14,2 C 18,1 C 78 % 1020,9 hPa 0,0 l/m 1,0 km/h (0 Bft) SO 135 10,7 C 14,5 C 3,5 km/h (1 Bft)
04.07.2020 02:02 14,4 C 14,1 C 18,1 C 78 % 1020,9 hPa 0,0 l/m 1,0 km/h (0 Bft) O-NO 67 10,6 C 14,4 C 3,5 km/h (1 Bft)
04.07.2020 02:00 14,3 C 14,1 C 18,1 C 78 % 1020,9 hPa 0,0 l/m 0,8 km/h (0 Bft) SO 135 10,5 C 14,3 C 0,0 km/h (0 Bft)
04.07.2020 01:58 14,3 C 14,1 C 18,1 C 78 % 1020,9 hPa 0,0 l/m 1,1 km/h (1 Bft) N-NO 22 10,5 C 14,3 C 0,0 km/h (0 Bft)
04.07.2020 01:56 14,4 C 14,2 C 18,1 C 78 % 1020,9 hPa 0,0 l/m 1,1 km/h (1 Bft) N-NO 22 10,6 C 14,4 C 3,7 km/h (1 Bft)
04.07.2020 01:54 14,4 C 14,2 C 18,1 C 77 % 1020,9 hPa 0,0 l/m 1,1 km/h (1 Bft) O-NO 67 10,4 C 14,4 C 3,7 km/h (1 Bft)
04.07.2020 01:52 14,5 C 14,2 C 18,1 C 77 % 1020,9 hPa 0,0 l/m 0,6 km/h (0 Bft) O-NO 67 10,5 C 14,5 C 2,1 km/h (1 Bft)
04.07.2020 01:50 14,4 C 14,0 C 18,1 C 77 % 1020,9 hPa 0,0 l/m 0,3 km/h (0 Bft) O-NO 67 10,4 C 14,4 C 3,5 km/h (1 Bft)
04.07.2020 01:48 14,4 C 14,0 C 18,1 C 77 % 1020,9 hPa 0,0 l/m 0,3 km/h (0 Bft) O-NO 67 10,4 C 14,4 C 3,5 km/h (1 Bft)
04.07.2020 01:46 14,3 C 13,9 C 18,1 C 77 % 1020,9 hPa 0,0 l/m 0,0 km/h (0 Bft) O-NO 67 10,3 C 14,3 C 0,0 km/h (0 Bft)
04.07.2020 01:44 14,2 C 13,8 C 18,1 C 77 % 1020,9 hPa 0,0 l/m 0,0 km/h (0 Bft) O-NO 67 10,2 C 14,2 C 0,0 km/h (0 Bft)
04.07.2020 01:42 14,3 C 13,7 C 18,2 C 77 % 1020,9 hPa 0,0 l/m 0,2 km/h (0 Bft) S-SO 157 10,3 C 14,3 C 0,0 km/h (0 Bft)
04.07.2020 01:40 14,4 C 13,5 C 18,2 C 77 % 1020,9 hPa 0,0 l/m 0,2 km/h (0 Bft) O-SO 112 10,4 C 14,4 C 0,0 km/h (0 Bft)
04.07.2020 01:38 14,4 C 13,4 C 18,2 C 77 % 1020,9 hPa 0,0 l/m 0,3 km/h (0 Bft) O-NO 67 10,4 C 14,4 C 0,0 km/h (0 Bft)
04.07.2020 01:36 14,4 C 13,0 C 18,2 C 77 % 1020,9 hPa 0,0 l/m 0,3 km/h (0 Bft) NO 45 10,4 C 14,4 C 0,0 km/h (0 Bft)
04.07.2020 01:34 14,3 C 12,9 C 18,2 C 78 % 1020,9 hPa 0,0 l/m 0,8 km/h (0 Bft) NW 315 10,5 C 14,3 C 3,3 km/h (1 Bft)
04.07.2020 01:32 14,5 C 12,9 C 18,2 C 77 % 1020,9 hPa 0,0 l/m 1,1 km/h (1 Bft) SO 135 10,5 C 14,5 C 3,3 km/h (1 Bft)
04.07.2020 01:30 14,5 C 12,9 C 18,2 C 78 % 1020,9 hPa 0,0 l/m 1,0 km/h (0 Bft) O-NO 67 10,7 C 14,5 C 0,0 km/h (0 Bft)
04.07.2020 01:28 14,4 C 13,0 C 18,2 C 78 % 1020,9 hPa 0,0 l/m 1,3 km/h (1 Bft) O-NO 67 10,6 C 14,4 C 2,1 km/h (1 Bft)
04.07.2020 01:26 14,5 C 13,3 C 18,2 C 78 % 1020,9 hPa 0,0 l/m 1,4 km/h (1 Bft) S 180 10,7 C 14,5 C 5,4 km/h (1 Bft)
04.07.2020 01:24 14,5 C 13,4 C 18,2 C 78 % 1020,9 hPa 0,0 l/m 1,4 km/h (1 Bft) O-NO 67 10,7 C 14,5 C 5,4 km/h (1 Bft)
04.07.2020 01:22 14,4 C 13,6 C 18,2 C 78 % 1020,9 hPa 0,0 l/m 1,0 km/h (0 Bft) S-SO 157 10,6 C 14,4 C 2,1 km/h (1 Bft)
04.07.2020 01:20 14,3 C 13,7 C 18,2 C 78 % 1020,9 hPa 0,0 l/m 0,8 km/h (0 Bft) SO 135 10,5 C 14,3 C 2,9 km/h (1 Bft)
04.07.2020 01:18 14,5 C 14,0 C 18,2 C 77 % 1020,9 hPa 0,0 l/m 0,6 km/h (0 Bft) S 180 10,5 C 14,5 C 2,9 km/h (1 Bft)
04.07.2020 01:16 14,5 C 14,1 C 18,2 C 77 % 1020,9 hPa 0,0 l/m 0,3 km/h (0 Bft) O-NO 67 10,5 C 14,5 C 0,0 km/h (0 Bft)
04.07.2020 01:14 14,5 C 14,2 C 18,2 C 77 % 1020,9 hPa 0,0 l/m 0,2 km/h (0 Bft) O-SO 112 10,5 C 14,5 C 2,1 km/h (1 Bft)
04.07.2020 01:12 14,5 C 14,4 C 18,2 C 77 % 1020,9 hPa 0,0 l/m 0,3 km/h (0 Bft) SO 135 10,5 C 14,5 C 2,1 km/h (1 Bft)
04.07.2020 01:10 14,5 C 14,5 C 18,2 C 77 % 1020,9 hPa 0,0 l/m 0,3 km/h (0 Bft) W-NW 292 10,5 C 14,5 C 0,0 km/h (0 Bft)
04.07.2020 01:08 14,7 C 14,5 C 18,2 C 77 % 1020,9 hPa 0,0 l/m 0,3 km/h (0 Bft) W-NW 292 10,7 C 14,7 C 0,0 km/h (0 Bft)
04.07.2020 01:06 14,6 C 14,6 C 18,2 C 77 % 1020,9 hPa 0,0 l/m 0,6 km/h (0 Bft) S-SO 157 10,6 C 14,6 C 0,0 km/h (0 Bft)
04.07.2020 01:04 14,7 C 14,6 C 18,2 C 77 % 1020,9 hPa 0,0 l/m 1,0 km/h (0 Bft) O-SO 112 10,7 C 14,7 C 2,1 km/h (1 Bft)
04.07.2020 01:02 14,6 C 14,7 C 18,2 C 77 % 1020,9 hPa 0,0 l/m 0,8 km/h (0 Bft) O-NO 67 10,6 C 14,6 C 2,1 km/h (1 Bft)
04.07.2020 01:00 14,7 C 14,7 C 18,3 C 77 % 1020,9 hPa 0,0 l/m 1,0 km/h (0 Bft) S-SO 157 10,7 C 14,7 C 2,1 km/h (1 Bft)
04.07.2020 00:58 14,6 C 14,8 C 18,3 C 77 % 1020,9 hPa 0,0 l/m 1,0 km/h (0 Bft) SW 225 10,6 C 14,6 C 2,3 km/h (1 Bft)
04.07.2020 00:56 14,6 C 14,7 C 18,3 C 77 % 1020,9 hPa 0,0 l/m 1,1 km/h (1 Bft) S-SW 202 10,6 C 14,6 C 2,7 km/h (1 Bft)
04.07.2020 00:54 14,6 C 14,7 C 18,3 C 77 % 1020,9 hPa 0,0 l/m 0,6 km/h (0 Bft) O-NO 67 10,6 C 14,6 C 2,7 km/h (1 Bft)
04.07.2020 00:52 14,6 C 14,6 C 18,3 C 77 % 1020,9 hPa 0,0 l/m 0,6 km/h (0 Bft) N-NW 337 10,6 C 14,6 C 4,6 km/h (1 Bft)
04.07.2020 00:50 14,7 C 14,7 C 18,3 C 77 % 1020,9 hPa 0,0 l/m 1,1 km/h (1 Bft) SO 135 10,7 C 14,7 C 4,6 km/h (1 Bft)
04.07.2020 00:48 14,8 C 14,7 C 18,3 C 77 % 1020,9 hPa 0,0 l/m 1,0 km/h (0 Bft) S 180 10,8 C 14,8 C 6,2 km/h (2 Bft)
04.07.2020 00:46 14,9 C 14,8 C 18,3 C 77 % 1020,9 hPa 0,0 l/m 0,8 km/h (0 Bft) SO 135 10,9 C 14,9 C 2,7 km/h (1 Bft)
04.07.2020 00:44 14,8 C 14,8 C 18,3 C 77 % 1020,9 hPa 0,0 l/m 0,8 km/h (0 Bft) O-NO 67 10,8 C 14,8 C 3,3 km/h (1 Bft)
04.07.2020 00:42 14,7 C 14,8 C 18,3 C 77 % 1020,9 hPa 0,0 l/m 0,8 km/h (0 Bft) O-SO 112 10,7 C 14,7 C 3,3 km/h (1 Bft)
04.07.2020 00:40 14,6 C 14,7 C 18,3 C 77 % 1020,9 hPa 0,0 l/m 0,2 km/h (0 Bft) W-NW 292 10,6 C 14,6 C 3,5 km/h (1 Bft)
04.07.2020 00:38 14,7 C 14,7 C 18,3 C 77 % 1021,1 hPa 0,0 l/m 0,0 km/h (0 Bft) O-SO 112 10,7 C 14,7 C 3,5 km/h (1 Bft)
04.07.2020 00:36 14,7 C 14,7 C 18,3 C 76 % 1021,1 hPa 0,0 l/m 0,0 km/h (0 Bft) N-NW 337 10,5 C 14,7 C 0,0 km/h (0 Bft)
04.07.2020 00:34 14,7 C 14,6 C 18,3 C 76 % 1021,1 hPa 0,0 l/m 0,3 km/h (0 Bft) W 270 10,5 C 14,7 C 0,0 km/h (0 Bft)
04.07.2020 00:32 14,8 C 14,6 C 18,3 C 76 % 1021,1 hPa 0,0 l/m 0,3 km/h (0 Bft) O-SO 112 10,6 C 14,8 C 0,0 km/h (0 Bft)
04.07.2020 00:30 14,8 C 14,7 C 18,3 C 76 % 1021,1 hPa 0,0 l/m 0,3 km/h (0 Bft) W 270 10,6 C 14,8 C 0,0 km/h (0 Bft)
04.07.2020 00:28 14,9 C 14,8 C 18,3 C 76 % 1021,1 hPa 0,0 l/m 0,8 km/h (0 Bft) O-SO 112 10,7 C 14,9 C 5,6 km/h (1 Bft)
04.07.2020 00:26 14,9 C 14,8 C 18,3 C 76 % 1021,1 hPa 0,0 l/m 1,0 km/h (0 Bft) O-NO 67 10,7 C 14,9 C 2,7 km/h (1 Bft)
04.07.2020 00:24 14,9 C 14,8 C 18,3 C 76 % 1021,1 hPa 0,0 l/m 0,8 km/h (0 Bft) O-NO 67 10,7 C 14,9 C 2,7 km/h (1 Bft)
04.07.2020 00:22 14,8 C 14,7 C 18,3 C 76 % 1021,1 hPa 0,0 l/m 1,0 km/h (0 Bft) O 90 10,6 C 14,8 C 0,0 km/h (0 Bft)
04.07.2020 00:20 14,8 C 14,7 C 18,3 C 76 % 1021,1 hPa 0,0 l/m 1,3 km/h (1 Bft) N-NW 337 10,6 C 14,8 C 5,6 km/h (1 Bft)
04.07.2020 00:18 14,8 C 14,7 C 18,3 C 76 % 1020,8 hPa 0,0 l/m 1,4 km/h (1 Bft) O-NO 67 10,6 C 14,8 C 5,6 km/h (1 Bft)
04.07.2020 00:16 14,7 C 14,7 C 18,3 C 76 % 1020,8 hPa 0,0 l/m 1,3 km/h (1 Bft) O-NO 67 10,5 C 14,7 C 2,3 km/h (1 Bft)
04.07.2020 00:14 14,8 C 14,6 C 18,3 C 76 % 1020,8 hPa 0,0 l/m 1,3 km/h (1 Bft) S-SO 157 10,6 C 14,8 C 0,0 km/h (0 Bft)
04.07.2020 00:12 14,7 C 14,6 C 18,4 C 76 % 1020,8 hPa 0,0 l/m 1,8 km/h (1 Bft) O-NO 67 10,5 C 14,7 C 2,7 km/h (1 Bft)
04.07.2020 00:10 14,5 C 13,9 C 18,4 C 77 % 1020,8 hPa 0,0 l/m 1,0 km/h (0 Bft) SO 135 10,5 C 14,5 C 2,7 km/h (1 Bft)
04.07.2020 00:08 14,5 C 13,9 C 18,4 C 77 % 1020,8 hPa 0,0 l/m 1,0 km/h (0 Bft) SO 135 10,5 C 14,5 C 2,7 km/h (1 Bft)
04.07.2020 00:06 14,5 C 13,9 C 18,4 C 77 % 1020,8 hPa 0,0 l/m 1,0 km/h (0 Bft) SO 135 10,5 C 14,5 C 2,7 km/h (1 Bft)
04.07.2020 00:04 14,5 C 13,9 C 18,4 C 77 % 1020,8 hPa 0,0 l/m 1,0 km/h (0 Bft) SO 135 10,5 C 14,5 C 2,7 km/h (1 Bft)
04.07.2020 00:02 14,5 C 13,9 C 18,4 C 77 % 1020,8 hPa 0,0 l/m 1,0 km/h (0 Bft) SO 135 10,5 C 14,5 C 2,7 km/h (1 Bft)
04.07.2020 00:00 14,6 C 13,9 C 18,4 C 77 % 1020,8 hPa 0,0 l/m 1,0 km/h (0 Bft) SO 135 10,6 C 14,6 C 2,7 km/h (1 Bft)
_ Min-Zeit 06:20 05:00 08:18 08:42 03:40 - 00:36 - - 05:12 06:20 00:14
Minimum _ 11,6 C 10,1 C 17,3 C 72 % 1020,6 hPa - 0,0 km/h (0 Bft) - - 8,9 C 11,6 C 0,0 km/h (0 Bft)
_ Max-Zeit 08:42 08:42 00:00 06:36 08:40 00:00 08:08 - - 08:34 08:42 03:28
Maximum _ 18,2 C 24,4 C 18,4 C 86 % 1021,4 hPa 0,0 l/m 2,1 km/h
O-SO (1 Bft)
- - 13,5 C 18,2 C 6,4 km/h
O-NO (2 Bft)
Durchschnitt _ 13,8 C 13,9 C 17,8 C 80 % 1020,9 hPa #0,0 l/m 0,4 km/h (0 Bft) O-NO - 10,5 C 13,8 C 1,3 km/h (1 Bft)